Weather History for Phoenix, AZ

Change the Weather History Date:

Wednesday, March 27, 2013

  Actual Average Record
Temperature  
Mean Temperature 74 °F 68 °F  
Max Temperature 87 °F 80 °F 98 °F (1986)
Min Temperature 61 °F 55 °F 33 °F (1898)
Degree Days  
Heating Degree Days 0 2  
Month to date heating degree days 34 76  
Since 1 July heating degree days 881 909  
Cooling Degree Days 9 4  
Month to date cooling degree days 138 69  
Year to date cooling degree days 146 86  
Growing Degree Days 24 (Base 50)    
Moisture  
Dew Point 25 °F    
Average Humidity 19    
Maximum Humidity 30    
Minimum Humidity 8    
Precipitation  
Precipitation 0.00 in 0.02 in 0.65 in (1992)
Month to date precipitation 0.85 0.91  
Year to date precipitation 2.55 2.74  
Snow  
Snow 0.00 in - - ()
Month to date snowfall 0.0  
Year to date snowfall 0.0  
Since 1 July snowfall 0.0  
Snow Depth 0.00 in    
Sea Level Pressure  
Sea Level Pressure 29.84 in    
Wind  
Wind Speed 7 mph (East)    
Max Wind Speed 15 mph    
Max Gust Speed 20 mph    
Visibility 10 miles    
Events      
T = Trace of Precipitation, MM = Missing Value Source: NWS Daily Summary

Daily Weather History Graph

Daily Weather History Graph

Search for Another Location

Airport:

Trip Planner

Search our weather history database for the weather conditions in past years. The results will help you decide how hot, cold, wet, or windy it might be!

Date:

Astronomy

Mar. 27, 2013 Rise Set
Actual Time 6:21 AM MST 6:45 PM MST
Civil Twilight 5:57 AM MST 7:09 PM MST
Nautical Twilight 5:27 AM MST 7:39 PM MST
Astronomical Twilight 4:58 AM MST 8:08 PM MST
Moon 7:28 PM MST (3/27) 6:17 AM MST (3/27)
Length of Visible Light 13h 12m
Length of Day
12h 23m
Full, 100% of the Moon is Illuminated
Mar 27
Full
Apr 2
Last Quarter
Apr 10
New
Apr 18
First Quarter
Apr 25
Full

Hourly Weather History & Observations

Time (MST) Temp. Dew Point Humidity Pressure Visibility Wind Dir Wind Speed Gust Speed Precip Events Conditions
12:51 AM 64.9 °F 30.9 °F 28% 29.81 in 10.0 mi East 6.9 mph - N/A   Clear
1:51 AM 64.9 °F 30.9 °F 28% 29.80 in 10.0 mi ENE 10.4 mph - N/A   Scattered Clouds
2:51 AM 63.0 °F 30.9 °F 30% 29.80 in 10.0 mi East 8.1 mph - N/A   Scattered Clouds
3:51 AM 62.1 °F 30.0 °F 30% 29.80 in 10.0 mi East 10.4 mph - N/A   Mostly Cloudy
4:51 AM 62.1 °F 30.0 °F 30% 29.80 in 10.0 mi East 10.4 mph - N/A   Mostly Cloudy
5:51 AM 61.0 °F 28.9 °F 30% 29.81 in 10.0 mi East 9.2 mph - N/A   Mostly Cloudy
6:51 AM 62.1 °F 28.9 °F 29% 29.83 in 10.0 mi East 8.1 mph - N/A   Mostly Cloudy
7:51 AM 66.0 °F 30.0 °F 26% 29.86 in 10.0 mi East 8.1 mph - N/A   Mostly Cloudy
8:51 AM 69.8 °F 26.6 °F 20% 29.91 in 10.0 mi East 8.1 mph - N/A   Mostly Cloudy
9:51 AM 75.2 °F 26.6 °F 17% 29.92 in 10.0 mi East 5.8 mph - N/A   Mostly Cloudy
10:51 AM 78.1 °F 23.0 °F 13% 29.88 in 10.0 mi Variable 3.5 mph - N/A   Mostly Cloudy
11:51 AM 81.0 °F 21.0 °F 11% 29.87 in 10.0 mi WSW 5.8 mph - N/A   Mostly Cloudy
12:51 PM 84.9 °F 16.0 °F 8% 29.85 in 10.0 mi South 11.5 mph 17.3 mph N/A   Mostly Cloudy
1:51 PM 84.9 °F 17.1 °F 8% 29.83 in 10.0 mi SSW 4.6 mph - N/A   Overcast
2:51 PM 84.2 °F 21.2 °F 10% 29.86 in 10.0 mi West 6.9 mph - N/A   Overcast
3:51 PM 82.9 °F 19.9 °F 10% 29.81 in 10.0 mi WNW 5.8 mph - N/A   Overcast
4:51 PM 82.9 °F 19.0 °F 9% 29.81 in 10.0 mi NW 6.9 mph 16.1 mph N/A   Overcast
5:51 PM 82.0 °F 19.9 °F 10% 29.81 in 10.0 mi NW 5.8 mph - N/A   Overcast
6:51 PM 82.0 °F 17.1 °F 9% 29.82 in 10.0 mi WNW 12.7 mph - N/A   Overcast
7:51 PM 81.0 °F 19.0 °F 10% 29.83 in 10.0 mi WNW 5.8 mph - N/A   Mostly Cloudy
8:51 PM 75.9 °F 23.0 °F 14% 29.85 in 10.0 mi Calm Calm - N/A   Mostly Cloudy
9:51 PM 73.9 °F 24.1 °F 16% 29.87 in 10.0 mi Calm Calm - N/A   Mostly Cloudy
10:51 PM 71.1 °F 28.0 °F 20% 29.88 in 10.0 mi East 3.5 mph - N/A   Mostly Cloudy
11:51 PM 69.1 °F 30.0 °F 23% 29.88 in 10.0 mi East 4.6 mph - N/A   Mostly Cloudy